Hourly Data Report for September 20, 2020

OTTAWA INTL A
ONTARIO
Current Station Operator: NAVCAN

45°19'00.000" N
75°40'00.000" W
114.90 m
6106001
71628
YOW

Download Data

Hourly Data (September 2020)
Hourly Data Report for September 20, 2020
TIME Temp Definition
°C
Dew Point Definition
°C
Rel Hum Definition
%
Wind Dir Definition
10's deg

Wind Spd Definition
km/h
Visibility Definition
km
Stn Press Definition
kPa
Hmdx Definition


Wind Chill Definition


Weather Definition


00:00 7.9 1.6 64 4 5 24.1 101.79     LegendNANA
01:00 6.7 2.6 75 5 5 24.1 101.83     Mostly Cloudy
02:00 6.4 3.3 80 4 14 24.1 101.84     LegendNANA
03:00 6.0 2.9 81 4 10 24.1 101.87     LegendNANA
04:00 4.8 2.7 86 3 11 24.1 101.92     Mostly Cloudy
05:00 4.9 2.7 86 4 9 24.1 101.99     LegendNANA
06:00 3.3 1.6 89 2 9 24.1 102.09     LegendNANA
07:00 6.3 3.7 83 2 8 24.1 102.21     Mainly Clear
08:00 8.5 3.1 68 5 13 24.1 102.22     LegendNANA
09:00 10.5 2.8 59 3 9 24.1 102.28     LegendNANA
10:00 11.4 0.7 47 9 4 24.1 102.31     Clear
11:00 12.7 1.4 46 10 6 24.1 102.28     LegendNANA
12:00 13.4 -1.3 36 33 7 24.1 102.28     LegendNANA
13:00 14.3 1.1 40 35 12 24.1 102.22     Clear
14:00 14.8 0.1 36 34 9 24.1 102.20     LegendNANA
15:00 14.6 -0.8 34 35 9 24.1 102.16     LegendNANA
16:00 14.3 -2.5 31 6 7 24.1 102.11     Clear
17:00 13.5 -0.5 38 25 4 24.1 102.11     LegendNANA
18:00 11.9 -1.2 40 36 3 24.1 102.12     LegendNANA
19:00 8.4 -0.1 55 17 4 24.1 102.14     Clear
20:00 5.6 0.2 68 12 8 24.1 102.17     LegendNANA
21:00 7.9 0.0 57 11 9 24.1 102.16     LegendNANA
22:00 6.3 -0.2 63 12 8 24.1 102.16     Clear
23:00 4.8 -0.4 69 14 7 24.1 102.17     LegendNANA

Notes on Data Quality.

Legend

  • E = Estimated
  • M = Missing
  • NA = Not Available*
  • [empty] = Indicates an unobserved value
Date modified: